Wind_Speed
15 15 15 14 13 13 13 13 13 13 13 13 14 15 16 17 16 16 15 16 17 16 15 13 12 12 12 12 13 13 13 13 13 13 13 13 13 13 12 13 13 13 13 14 13 13 13 13 13 13 13 13 12 12 12 11 10 10 9 8 8 8 8 8 7 7 8 10 11 11 11 11 11 10 9 9 8 8 8 8 8 9 10 10 10
14 14 14 14 13 12 12 13 14 15 15 15 14 14 16 17 17 17 17 17 18 16 14 12 11 11 11 12 12 13 13 14 14 14 13 13 13 13 12 13 13 13 14 14 14 14 13 13 13 13 13 12 12 11 11 11 10 9 8 8 7 7 7 7 7 7 8 10 11 11 11 10 10 8 8 8 8 8 8 8 8 10 11 11 11
14 14 14 14 14 13 12 13 15 15 15 14 13 14 15 17 18 18 18 18 18 17 14 12 11 11 12 12 13 14 14 15 14 14 13 13 13 12 12 13 13 13 13 14 15 15 14 14 14 13 12 12 11 11 11 11 11 10 9 8 8 8 8 8 8 8 8 10 11 10 10 9 9 8 7 7 8 8 7 8 9 10 11 12 12
16 15 15 15 15 14 13 13 14 15 15 14 14 14 15 18 19 19 19 19 18 17 14 12 12 13 13 13 14 15 16 15 15 14 14 13 13 12 12 12 12 12 13 14 14 15 15 15 14 14 13 12 11 11 12 12 11 11 10 9 9 9 9 9 9 9 9 10 10 10 9 8 8 7 7 7 8 8 7 8 10 11 12 13 13
18 18 17 16 16 16 14 14 14 16 17 17 16 15 16 18 19 19 19 19 19 17 15 13 14 15 15 15 16 17 16 16 15 14 14 13 12 12 12 12 12 12 12 13 13 14 15 15 15 14 13 12 12 12 12 12 12 11 10 10 9 9 9 9 9 10 10 10 10 9 8 7 7 7 7 7 8 8 8 9 11 11 12 13 13
19 20 19 18 18 17 15 15 15 16 17 17 16 15 15 17 19 19 19 19 19 17 16 15 16 17 17 17 17 16 16 15 14 14 13 13 12 12 12 11 12 12 12 13 13 13 14 15 15 15 14 13 12 11 12 13 12 11 10 9 9 9 9 9 9 9 10 10 9 9 7 6 6 7 7 7 8 9 9 10 12 12 12 13 13
21 20 20 18 17 17 16 16 16 16 17 17 16 15 15 16 18 19 19 19 19 18 18 17 18 18 18 17 17 16 15 15 14 13 13 12 12 12 12 12 12 12 13 13 13 13 14 14 15 15 14 13 12 11 12 12 12 11 10 9 9 9 9 10 10 10 10 10 9 8 7 5 5 6 7 7 8 9 9 11 12 12 13 13 12
22 21 20 19 17 16 16 16 17 16 17 16 16 16 16 17 19 19 19 20 20 19 19 19 19 19 18 17 17 16 16 16 15 14 13 12 12 12 12 12 12 13 13 13 13 13 13 14 15 15 14 13 13 12 12 12 12 11 10 9 8 9 9 10 10 10 10 10 9 8 7 5 5 5 6 7 8 9 10 10 12 12 12 12 11
22 22 21 20 18 16 16 17 16 16 16 17 17 17 17 18 19 20 20 21 21 21 20 20 19 19 17 16 17 17 18 18 17 16 15 14 13 13 12 12 13 13 13 13 13 13 13 14 14 14 14 13 13 12 12 12 11 11 10 8 8 8 9 10 10 10 9 9 9 8 7 6 5 5 6 7 7 9 10 10 11 12 12 11 11
21 22 22 22 20 19 18 17 15 14 16 17 18 17 17 18 19 21 21 22 23 22 21 20 19 18 16 16 17 18 18 18 18 17 16 15 14 13 13 13 13 13 13 13 13 13 13 13 13 13 13 13 12 12 12 12 11 10 9 8 8 8 9 10 10 10 10 9 9 8 7 6 6 6 6 6 6 8 9 10 10 11 11 10 10
21 22 22 22 22 21 19 17 13 12 13 15 16 17 17 18 20 21 22 23 24 23 21 20 19 18 16 16 17 19 19 19 18 18 16 15 14 14 14 14 14 13 13 13 13 13 13 13 13 13 12 12 12 11 11 11 11 10 9 8 8 9 9 10 10 10 10 10 9 9 8 7 6 6 7 7 6 7 8 9 10 10 9 9 9
24 23 23 22 21 20 19 16 13 11 11 12 15 16 17 18 20 21 22 24 25 24 21 20 18 17 17 16 17 19 19 19 19 18 16 15 14 14 14 14 13 13 13 13 13 12 13 13 13 13 12 12 12 12 11 11 11 10 9 9 9 9 9 9 9 9 9 9 8 8 8 7 7 7 7 7 7 6 7 8 9 9 8 8 9
25 25 23 22 21 20 19 18 15 12 11 12 15 17 18 18 19 21 23 24 26 25 22 20 19 17 17 17 18 19 19 19 19 18 17 16 15 14 14 13 13 13 13 13 13 13 13 13 13 13 12 12 11 11 11 11 10 10 9 9 9 9 9 8 8 7 7 7 6 6 6 6 7 7 7 7 7 6 7 7 7 8 7 7 8
25 25 24 22 21 21 20 19 17 15 14 14 15 18 19 19 19 21 23 25 26 26 23 21 19 17 18 18 19 19 19 19 20 19 18 17 16 15 14 13 13 13 13 13 12 12 12 12 12 12 12 11 11 11 11 11 10 10 9 9 9 9 9 8 8 7 6 6 6 5 5 5 5 6 6 7 7 6 6 6 6 7 7 7 7
27 25 24 23 22 22 22 20 18 17 16 15 16 18 20 20 20 21 23 25 27 27 25 22 20 18 18 19 20 20 19 19 19 19 19 17 16 15 14 13 13 13 12 12 11 11 12 12 12 11 11 11 11 11 10 10 10 10 9 9 9 9 9 9 8 7 7 6 6 6 6 6 5 5 5 6 6 6 6 5 5 6 6 6 7
29 27 25 24 24 24 24 23 22 20 18 16 16 18 21 22 22 22 23 25 28 28 26 24 21 19 19 20 20 20 20 20 20 20 19 19 17 16 15 14 13 13 12 11 11 11 11 12 11 11 10 10 10 10 10 10 9 9 8 8 8 8 8 8 7 7 7 6 6 6 6 6 6 6 5 5 6 6 6 6 5 5 6 6 6
29 29 28 27 25 25 26 25 25 24 22 20 18 19 21 24 24 24 24 25 27 29 28 25 23 21 20 20 21 21 21 21 21 21 20 20 18 17 16 15 15 14 13 13 12 11 12 12 11 11 11 10 10 10 10 9 9 8 8 8 8 7 7 7 7 7 7 6 6 6 6 6 7 7 6 5 5 6 6 6 6 6 6 6 6
30 30 29 28 27 26 26 26 26 26 25 24 23 22 23 25 27 27 26 27 28 30 29 27 25 23 22 22 22 22 22 23 23 22 21 20 19 18 17 17 16 15 15 14 13 13 13 13 12 12 11 10 10 10 10 9 9 8 8 8 8 7 7 8 8 7 7 7 6 6 6 6 7 7 7 6 5 5 6 6 6 6 6 5 5
32 31 30 29 28 27 27 27 27 27 27 27 26 25 25 25 27 28 29 29 30 31 31 29 27 26 24 24 24 24 23 24 24 23 22 21 20 19 19 18 17 16 16 15 14 14 14 13 13 13 12 11 11 11 11 10 10 9 9 9 8 8 8 8 8 8 8 7 7 7 7 7 7 7 7 8 7 6 5 5 6 6 6 6 5
31 31 31 31 29 28 27 27 28 29 29 29 28 27 25 25 26 28 30 30 31 32 32 31 30 28 27 26 26 25 24 24 24 24 24 23 21 21 20 19 18 17 16 16 15 15 15 14 14 14 13 13 12 12 12 11 11 10 10 9 9 9 9 9 9 8 8 8 8 8 7 7 7 7 8 8 8 8 7 6 6 6 6 6 6
31 30 31 31 30 29 29 29 30 31 30 30 29 28 27 25 24 26 29 30 31 31 32 32 32 30 29 28 27 27 26 25 25 25 25 24 23 22 21 20 19 19 17 17 16 15 15 15 14 14 14 14 13 12 12 12 12 11 11 10 10 10 10 10 10 9 8 8 8 8 8 8 8 8 8 8 8 8 8 7 7 6 6 6 6
30 30 30 31 31 30 30 30 30 29 29 30 30 29 27 25 25 24 24 26 28 29 30 31 32 32 31 30 29 29 28 27 26 26 26 25 25 24 23 22 21 20 19 18 17 16 16 15 15 15 14 14 14 13 13 12 12 12 12 11 10 10 11 11 11 10 9 8 7 7 7 8 8 8 9 8 8 8 8 8 7 7 7 6 6
30 30 30 31 30 30 31 31 30 29 30 31 31 29 28 27 26 24 23 24 26 27 29 30 30 31 32 31 31 30 29 28 27 27 27 27 27 26 25 24 23 22 21 20 18 17 17 16 16 16 15 15 15 14 13 13 12 13 13 12 11 11 12 12 11 11 10 9 8 7 7 7 8 8 8 8 8 8 8 8 8 8 8 7 7
30 30 31 31 30 30 32 32 30 30 31 31 31 30 29 29 28 27 26 26 26 27 28 29 30 31 32 31 31 31 30 30 29 28 28 28 28 28 27 26 25 24 23 22 20 19 18 17 17 17 17 16 16 16 15 13 13 13 14 13 13 12 12 13 12 11 10 10 9 8 7 7 7 7 7 7 7 7 8 8 8 8 9 9 9
31 31 32 31 30 31 32 32 31 30 30 31 32 32 31 31 29 29 28 28 27 27 28 29 30 32 32 32 32 32 31 31 30 30 30 31 30 29 29 28 27 26 25 24 23 21 20 19 18 18 18 18 17 17 16 15 14 14 15 15 14 14 14 14 13 12 11 10 9 9 8 8 7 7 6 6 6 6 6 6 6 7 8 9 9
32 32 32 32 31 31 31 31 30 30 31 31 31 32 33 33 32 31 30 30 28 27 27 28 30 32 33 33 33 33 32 32 32 32 32 32 32 31 30 30 29 28 28 27 25 23 22 21 21 21 20 19 19 18 17 16 15 15 15 16 16 15 15 15 15 14 12 11 10 10 9 9 8 8 7 6 5 5 4 4 4 5 6 7 8
35 34 33 33 33 32 31 29 28 28 30 31 31 31 31 33 35 35 33 31 30 28 27 26 27 29 32 34 35 34 34 34 33 34 34 34 33 33 32 32 31 30 30 29 27 26 24 24 23 23 22 21 20 19 18 17 16 15 16 17 17 17 16 16 16 15 14 13 11 11 11 10 9 9 8 7 6 5 5 4 4 4 4 4 4
38 36 35 35 34 32 31 30 28 26 27 29 31 32 31 32 34 36 35 33 31 30 28 27 27 27 28 32 35 37 36 35 35 35 35 34 34 34 34 33 32 31 31 31 29 28 27 26 25 24 24 23 22 21 20 19 17 16 17 18 18 18 18 17 17 16 15 14 13 12 12 12 11 10 9 8 8 7 7 6 6 5 5 5 4
41 39 38 37 36 34 31 30 29 27 27 27 29 32 33 33 33 34 34 33 32 31 31 31 30 29 29 30 33 36 37 37 37 36 36 35 35 34 34 34 33 32 32 32 31 30 29 28 27 26 25 25 24 23 21 21 20 19 19 19 19 20 20 19 18 17 16 16 15 14 14 13 12 11 10 9 9 8 8 7 7 7 7 7 6
43 43 41 40 38 37 35 33 31 30 29 29 30 31 33 34 34 33 33 34 33 33 33 33 32 32 32 31 31 33 36 38 39 38 38 37 36 35 34 34 33 33 33 33 32 31 31 30 29 28 27 26 26 25 24 23 23 22 21 21 21 21 22 21 21 20 18 18 17 16 16 15 14 13 12 11 10 9 9 8 7 7 7 7 8
45 46 45 43 41 40 40 38 36 34 32 32 32 32 32 34 35 35 34 35 35 34 35 35 34 35 35 34 32 32 33 36 39 40 40 39 38 36 35 34 34 34 34 34 33 32 32 31 30 29 29 28 27 27 26 27 27 25 24 23 23 23 23 23 23 22 21 21 20 19 18 17 16 15 14 13 11 11 10 10 8 7 7 7 8
46 47 48 46 45 44 44 44 42 40 38 36 35 35 34 34 35 37 37 36 35 35 36 36 37 38 37 36 34 33 32 32 36 39 41 41 40 39 37 35 35 35 35 34 34 33 33 32 31 31 30 30 29 28 29 29 29 28 27 26 26 25 25 25 25 24 24 23 23 22 20 19 18 18 17 15 13 13 12 12 10 9 8 8 8
46 48 49 49 49 47 47 47 46 45 42 40 38 39 38 37 37 37 38 38 36 36 38 39 40 40 40 38 36 34 32 31 32 35 38 41 41 41 40 39 38 37 36 35 34 34 33 33 32 32 31 30 30 30 30 31 31 30 30 29 28 27 27 26 26 26 26 26 25 24 23 21 21 21 20 18 16 16 15 14 13 11 10 10 9
47 48 49 50 51 51 50 49 49 48 46 44 42 42 41 40 39 38 38 39 39 39 41 42 42 40 39 38 36 34 32 31 31 32 34 37 39 40 41 41 41 40 38 37 36 35 34 33 33 32 32 31 31 31 31 32 32 32 32 31 30 29 28 27 26 26 27 27 27 27 25 24 24 23 22 21 20 19 19 17 16 14 13 13 12
48 48 48 50 51 52 52 52 52 52 50 48 46 45 45 44 42 41 40 41 43 43 42 40 39 38 37 36 36 36 35 33 31 31 32 34 36 39 40 41 41 42 41 40 39 38 36 34 33 33 32 32 32 31 32 32 33 33 33 33 32 31 29 28 27 27 27 28 28 28 28 27 26 25 25 24 24 23 22 20 18 17 16 16 15
48 48 48 49 50 51 52 53 53 53 52 51 49 48 48 48 47 45 43 43 44 45 43 39 37 37 37 37 38 38 37 35 34 33 33 33 34 36 39 40 41 41 41 40 40 40 38 36 35 34 33 33 33 32 32 33 33 34 34 33 33 31 30 29 28 28 28 28 29 29 30 30 29 28 27 27 27 26 25 23 22 20 20 19 18
49 49 49 49 49 50 51 52 52 52 51 51 50 49 50 51 51 49 47 45 45 45 45 43 40 38 38 39 39 39 37 36 36 35 35 34 34 35 37 39 40 40 40 39 39 40 40 38 37 36 34 33 33 33 33 33 34 35 34 33 32 31 30 29 29 29 29 28 28 29 30 31 31 30 29 30 30 29 28 26 25 24 23 22 21
50 50 50 49 49 49 49 50 50 50 50 48 48 48 49 51 53 53 51 49 47 46 47 47 45 42 41 40 39 38 38 38 38 38 38 37 37 37 37 38 38 38 38 38 39 39 40 39 39 38 37 35 34 34 34 34 35 35 35 33 32 32 30 29 29 29 29 28 28 29 30 31 31 32 32 32 33 32 30 29 29 28 27 25 25
51 51 51 51 50 50 50 49 48 49 50 48 47 47 48 48 51 54 55 54 51 49 48 49 48 45 43 43 41 39 39 40 40 40 41 41 40 39 38 37 36 36 37 37 38 39 40 39 39 40 40 38 36 36 35 35 35 36 35 35 34 32 31 29 28 29 29 28 28 28 28 29 30 33 34 34 35 34 33 32 32 31 30 28 29
52 52 52 52 52 52 51 51 50 48 49 50 49 49 48 48 49 51 54 56 55 53 52 51 50 49 46 44 43 42 41 41 41 42 43 44 43 41 39 37 37 36 36 36 38 39 39 39 40 40 41 40 38 37 37 36 37 37 37 36 35 33 31 30 29 29 28 28 28 28 28 28 29 31 34 34 35 36 35 35 34 33 32 31 33
54 53 52 52 53 53 53 53 52 51 50 50 50 50 50 50 50 50 51 54 55 55 54 52 52 51 50 47 45 45 44 43 43 43 44 45 44 42 40 40 39 39 38 37 37 39 39 40 41 41 41 41 40 39 39 39 39 39 39 38 37 35 33 31 31 30 29 28 28 29 29 29 29 31 32 33 34 35 35 35 34 34 34 35 35
58 57 55 54 54 54 54 54 54 53 52 51 51 51 51 51 51 51 51 52 53 54 54 55 53 52 53 53 51 49 47 46 46 46 45 45 45 43 43 43 43 41 40 38 38 39 40 40 41 41 41 41 40 40 41 40 41 41 41 40 38 36 35 34 33 32 30 29 29 30 30 31 31 32 33 33 33 33 33 33 32 33 35 36 36
60 61 60 59 57 56 56 56 55 55 55 54 53 53 53 52 52 51 52 53 53 53 53 55 55 52 51 53 55 55 53 51 49 48 48 48 47 45 45 45 45 44 43 41 40 41 41 41 41 41 40 41 41 42 41 42 42 43 43 42 41 39 38 38 36 34 32 31 31 32 32 33 34 35 35 35 34 33 32 31 31 32 33 34 34
61 62 63 63 62 60 59 59 58 58 58 57 56 55 55 55 54 53 53 53 54 55 54 54 55 55 52 50 51 53 55 55 53 51 50 50 50 49 47 46 46 46 46 45 44 44 44 42 42 41 40 40 41 41 41 42 43 43 44 44 43 42 42 41 39 37 35 34 34 34 34 35 36 37 38 37 36 34 33 32 32 33 33 33 33
59 61 63 65 66 65 64 63 62 62 61 61 60 58 57 57 57 56 56 56 55 56 56 56 56 57 57 54 51 50 50 52 54 54 53 52 52 51 49 49 49 49 47 47 47 48 47 45 43 42 41 41 41 40 41 42 43 44 44 44 44 45 45 44 43 41 38 37 37 37 37 38 38 39 40 39 37 35 34 33 33 34 33 32 32
56 58 60 63 65 67 68 67 67 66 66 65 64 63 61 60 59 59 59 59 58 58 58 58 58 58 59 59 57 54 52 51 52 52 53 53 53 52 51 52 52 51 49 48 48 48 48 47 46 45 43 43 43 41 40 42 43 44 44 44 45 45 46 46 45 43 41 40 40 40 40 39 40 41 42 40 38 37 35 34 33 33 33 32 31
56 57 58 60 62 65 67 69 70 70 70 70 69 68 67 65 63 62 61 61 61 61 60 60 60 60 59 60 60 58 56 55 54 53 52 52 52 51 51 52 53 52 51 49 47 46 46 45 46 48 49 48 46 43 41 41 42 42 43 45 46 46 46 47 46 44 42 42 42 42 42 42 42 43 42 40 38 36 35 33 32 32 32 31 31
60 59 59 60 60 61 64 67 69 72 73 74 73 72 72 71 69 67 66 64 63 63 63 63 63 61 61 61 61 60 59 58 58 57 55 53 52 51 51 51 52 52 51 50 47 44 44 44 45 49 53 52 46 42 42 42 43 43 44 45 46 46 47 47 47 46 46 45 45 44 43 42 41 40 39 37 35 35 34 32 31 31 30 30 29
62 63 63 63 63 63 63 64 66 69 72 75 76 75 76 75 74 73 71 70 67 65 64 65 65 65 63 62 62 62 62 60 59 59 57 54 53 53 52 51 51 52 51 50 48 44 42 42 42 46 52 51 44 42 45 45 42 42 44 44 43 44 47 48 49 50 47 44 44 43 40 38 36 35 34 34 33 33 33 32 30 30 29 29 28
62 63 65 66 66 67 66 65 66 67 69 72 75 77 78 78 79 78 76 74 72 70 67 66 66 67 66 65 64 64 64 63 62 60 59 56 54 54 52 50 50 51 50 50 49 47 45 43 39 39 44 47 46 45 44 40 37 37 39 40 40 42 46 48 50 50 44 40 40 38 34 32 32 31 31 32 32 32 32 31 30 29 28 27 27
57 60 62 64 66 68 69 69 69 69 69 70 73 75 78 79 81 82 81 79 77 75 72 70 68 67 67 67 66 65 65 65 64 63 62 60 56 54 52 49 49 51 51 50 49 48 49 49 44 40 39 42 46 47 43 39 38 39 38 38 39 42 44 46 49 48 40 34 34 34 30 29 30 30 30 31 31 32 32 30 28 27 26 26 26
Wind_Direction
181 175 172 170 168 170 176 182 187 189 189 189 189 190 193 195 195 195 195 192 187 186 189 185 182 181 172 163 159 157 157 157 156 156 156 156 155 155 154 155 155 157 159 158 158 158 155 152 147 142 139 136 136 138 140 142 142 144 147 149 149 144 139 139 139 141 142 139 137 135 133 131 130 130 127 120 114 110 109 107 102 102 101 99 97
182 179 174 170 167 170 176 181 186 190 192 192 191 190 192 194 194 194 196 195 189 186 190 186 178 176 173 166 160 159 160 160 161 160 160 159 159 159 159 159 160 163 164 163 163 163 162 158 153 149 146 143 141 142 144 145 144 145 146 149 149 144 141 142 143 147 147 140 137 136 135 134 132 131 127 119 112 110 113 113 109 108 108 104 101
183 181 176 172 171 171 176 182 186 190 193 193 193 193 192 192 194 195 196 196 191 186 188 184 174 173 174 170 166 165 166 165 164 163 162 161 161 161 162 161 162 164 166 166 166 166 166 164 159 155 153 151 148 147 148 147 145 145 147 149 150 150 149 151 152 153 149 142 139 140 140 140 137 132 126 117 111 110 114 116 113 113 112 109 107
183 183 181 177 175 175 177 182 186 187 189 192 193 193 194 193 194 195 194 195 192 185 184 181 174 174 175 175 175 171 170 169 166 163 161 161 160 160 162 160 160 163 164 164 166 167 168 167 165 162 160 159 155 153 153 151 148 147 147 148 150 152 152 155 157 155 150 145 144 144 145 144 136 129 120 113 112 113 119 121 117 116 115 113 113
181 184 185 182 180 180 180 181 185 188 190 192 191 191 194 195 195 195 193 193 191 184 181 180 178 177 178 181 180 174 172 171 167 163 161 162 161 161 162 161 161 164 162 161 164 166 167 168 167 166 165 165 162 160 157 154 151 147 145 144 145 147 151 156 159 154 150 149 149 148 147 142 132 121 112 110 112 117 125 128 122 119 117 117 117
182 184 187 187 187 186 182 181 186 191 194 194 192 191 193 195 195 194 192 192 189 184 182 183 183 183 183 184 180 174 172 171 169 167 166 166 166 164 163 163 165 165 162 160 162 166 168 169 168 168 169 169 167 165 162 158 155 150 146 143 142 145 151 155 159 157 153 153 152 150 147 139 126 118 113 113 117 121 129 130 126 123 123 123 124
185 185 188 191 195 191 183 185 190 193 196 195 193 192 192 194 194 194 192 190 187 184 184 186 188 188 187 184 178 172 171 172 174 173 172 172 172 169 165 167 170 169 164 160 161 165 168 168 168 170 171 170 169 169 166 164 160 156 153 151 150 151 153 156 160 161 157 154 152 149 144 133 122 118 114 116 122 125 129 131 128 127 129 129 129
186 184 186 191 200 199 191 192 194 195 197 195 193 193 193 192 192 191 191 189 187 187 187 189 193 192 189 182 174 171 171 175 178 176 176 177 178 175 169 170 173 171 165 161 160 163 165 166 167 169 170 170 170 170 170 169 167 165 163 161 160 157 156 157 159 160 156 152 150 146 139 128 120 116 113 116 124 128 131 131 129 130 133 134 134
193 186 186 190 199 204 204 203 200 198 197 195 194 195 194 192 191 190 189 188 188 189 190 192 196 196 190 180 173 172 174 177 179 178 178 180 182 180 174 173 176 173 167 162 160 161 163 164 166 167 169 170 172 171 171 172 172 171 170 168 166 160 156 155 155 155 154 151 147 143 136 127 121 116 112 117 124 128 132 133 131 133 136 137 138
201 195 190 190 196 202 208 209 203 200 201 199 197 197 195 191 190 190 189 188 189 192 194 195 197 197 190 179 176 177 178 181 181 180 181 182 184 183 177 177 179 176 171 165 161 161 162 164 167 168 169 171 172 172 172 173 176 176 176 172 167 162 157 154 153 153 153 152 149 144 138 131 126 119 114 117 124 129 133 135 135 137 139 139 140
202 201 197 194 197 201 207 210 204 201 205 204 199 196 197 193 191 191 190 189 190 193 196 197 198 197 189 182 182 183 182 183 183 183 184 184 187 187 182 182 183 179 174 169 165 164 166 168 171 172 173 173 173 174 174 176 179 181 181 175 168 165 162 157 156 157 158 158 155 151 148 142 133 125 120 120 125 131 136 139 140 140 141 141 141
203 203 203 201 201 202 206 209 205 202 205 205 200 196 197 197 193 192 192 192 192 194 197 199 199 195 188 185 189 188 186 184 185 185 185 186 189 190 187 186 187 183 177 172 171 170 172 175 176 176 176 176 176 176 177 180 183 184 183 179 173 168 166 164 163 162 163 164 162 159 155 148 139 131 127 126 129 136 141 142 143 142 142 140 140
206 205 205 206 206 206 207 207 202 198 200 201 199 195 196 199 196 193 193 194 194 196 197 199 200 194 187 187 193 193 189 187 186 186 186 187 190 191 190 189 189 188 183 177 175 175 177 179 179 179 178 179 180 180 181 183 186 185 183 181 176 170 169 170 169 166 166 166 166 162 156 152 146 138 133 131 132 139 144 144 142 144 142 140 139
208 206 205 206 208 209 210 208 201 196 198 199 198 195 194 198 199 196 196 196 196 197 199 200 200 194 187 189 196 197 193 189 188 187 186 188 190 190 189 188 189 192 189 182 180 178 180 182 182 183 182 182 184 185 186 188 187 186 185 183 179 173 173 175 177 175 172 168 167 165 160 158 154 147 142 138 136 140 145 144 144 144 142 140 140
212 211 209 206 207 210 210 209 202 198 199 199 199 198 194 195 199 199 198 198 198 198 199 201 200 195 189 191 197 199 195 192 191 189 188 188 189 189 188 187 190 195 194 189 187 187 188 188 187 188 187 188 189 190 192 192 190 188 187 186 184 181 179 181 184 184 180 178 177 174 168 163 161 161 154 147 144 146 148 149 149 147 144 142 143
214 215 214 210 209 209 209 207 203 200 199 199 202 202 196 195 198 201 200 200 201 201 200 201 199 196 193 194 200 201 197 195 194 192 191 190 189 188 187 188 193 197 198 196 197 199 199 197 196 195 194 195 196 197 198 198 197 195 194 194 192 190 189 187 189 191 190 189 188 187 180 172 169 169 169 164 158 156 156 156 155 153 150 148 149
213 214 216 215 213 210 208 206 204 200 197 197 202 205 201 198 198 200 201 202 203 204 203 201 198 196 195 197 202 204 200 198 197 195 194 192 191 189 188 191 197 201 202 202 204 208 210 207 206 205 204 205 206 207 209 207 206 205 205 207 205 201 200 196 195 197 199 197 196 196 194 188 182 178 176 176 175 171 166 165 166 164 160 159 156
216 216 216 218 217 213 210 209 207 205 200 197 201 207 206 201 199 200 201 202 203 205 205 203 200 197 196 198 204 206 204 202 200 198 198 196 193 192 193 196 201 205 207 207 207 211 215 215 215 214 214 216 217 218 220 219 217 215 214 217 217 213 209 205 201 200 202 201 199 200 203 205 200 191 182 180 186 187 178 172 176 178 174 174 172
221 221 219 220 220 217 214 211 210 210 206 203 203 208 210 207 204 203 203 204 204 205 205 205 202 199 197 199 205 208 207 206 204 202 202 201 198 195 196 199 204 208 210 212 212 212 217 220 221 222 223 225 226 227 228 228 226 224 222 222 222 220 216 211 204 199 199 198 197 200 205 209 211 207 197 187 188 195 192 182 183 188 188 186 190
221 223 223 223 223 220 218 215 213 212 211 211 209 209 213 214 210 208 208 208 208 207 206 206 205 202 199 199 204 209 210 208 208 207 206 206 204 201 200 202 206 209 212 215 217 217 219 222 225 227 229 230 232 232 233 235 234 231 228 227 225 222 217 210 203 198 195 194 193 196 201 205 208 212 212 203 195 195 198 195 192 197 200 198 199
221 223 225 226 225 224 223 220 217 214 215 216 215 213 214 216 216 215 214 215 214 211 210 209 207 205 203 202 204 208 211 210 209 210 210 211 211 209 207 207 209 212 214 217 219 221 223 225 227 230 232 234 235 235 236 237 237 235 233 231 228 224 216 207 201 198 196 193 192 193 196 201 204 207 211 213 209 203 202 203 203 206 210 209 209
223 223 225 226 227 226 226 225 222 221 221 221 220 219 216 217 219 220 220 221 221 220 218 216 213 209 206 205 206 209 212 211 210 211 212 213 214 214 213 213 215 216 217 218 220 222 225 228 229 231 232 234 234 236 237 237 238 237 236 234 232 226 217 209 204 202 201 197 192 189 191 196 201 203 206 208 210 210 208 208 210 215 220 221 221
224 224 224 225 226 227 228 227 224 225 226 224 224 223 220 218 218 219 221 222 224 225 225 224 222 218 214 210 209 211 213 213 212 212 213 215 216 216 215 215 218 219 221 221 221 222 225 228 231 232 232 231 232 234 237 239 239 237 235 234 234 228 219 215 213 210 208 205 200 196 193 192 193 197 200 201 205 209 211 212 213 217 223 227 231
222 223 223 223 224 226 229 230 226 225 226 225 224 224 224 223 220 219 220 221 222 224 226 226 227 227 224 220 215 214 215 216 215 213 214 216 217 217 216 216 217 220 222 224 223 223 224 227 230 232 233 230 229 230 234 238 240 237 234 231 231 230 224 220 221 220 218 216 213 209 205 202 198 196 194 193 195 200 205 210 213 216 222 227 232
219 220 221 222 224 226 230 232 229 226 227 226 223 222 222 224 224 223 222 223 223 222 223 225 227 229 230 228 224 221 219 219 218 216 216 217 218 218 218 218 217 218 221 223 223 223 223 224 226 229 231 231 229 229 230 235 238 237 234 230 229 230 227 226 227 227 225 225 225 224 222 220 216 212 205 197 193 193 195 199 205 211 219 226 231
217 218 219 221 224 226 229 232 230 227 229 231 228 225 222 221 224 225 225 225 226 224 223 224 226 229 231 231 230 228 225 223 222 221 219 218 218 219 220 220 219 218 220 222 222 222 221 222 224 225 227 229 230 230 231 233 236 236 235 231 229 230 229 229 231 232 232 231 232 234 236 236 235 232 227 220 211 204 199 196 199 207 217 226 233
218 218 219 220 224 226 228 231 230 228 232 235 235 233 228 223 222 224 224 225 227 229 229 229 230 232 233 233 232 231 229 228 227 226 224 221 220 220 221 221 220 219 220 221 221 221 219 220 222 223 224 225 227 230 232 234 236 238 237 235 233 232 232 232 234 237 238 237 238 240 243 246 246 244 242 239 234 228 222 217 214 219 226 235 242
219 220 220 221 223 226 229 231 231 228 232 238 239 240 238 231 226 225 225 224 226 229 231 233 235 238 238 236 234 233 232 231 231 231 230 227 225 224 224 223 223 221 221 222 221 220 219 219 220 222 222 223 224 226 231 234 236 237 239 238 237 236 237 236 237 239 242 243 244 245 248 250 251 251 249 247 245 240 234 230 226 228 235 243 251
219 221 222 222 222 224 228 231 233 232 232 237 241 243 243 240 235 231 227 226 228 229 230 233 236 239 242 239 237 235 234 234 234 234 234 233 231 229 229 228 227 225 225 225 223 222 220 219 220 221 222 221 221 222 226 232 235 236 238 239 239 240 240 240 240 241 243 246 247 248 250 254 256 255 252 250 249 247 243 239 234 232 235 241 247
219 220 222 224 221 221 224 228 231 233 234 237 240 243 245 247 246 240 232 228 228 229 231 233 235 237 239 240 239 238 237 235 235 235 236 237 236 234 233 233 232 231 230 229 228 226 225 223 221 221 222 222 220 220 222 227 231 233 236 238 239 240 241 241 242 242 243 245 248 248 249 253 256 257 254 250 250 251 251 248 242 237 238 241 245
219 219 221 223 223 221 223 226 227 231 235 238 240 241 244 248 250 248 241 234 231 230 231 232 233 235 238 240 241 242 242 239 237 236 236 237 238 238 237 236 236 236 236 234 232 231 230 228 226 224 224 224 222 221 222 225 229 231 233 236 238 239 240 240 241 242 242 244 246 248 249 251 254 257 256 253 251 252 255 254 250 245 242 243 247
221 221 221 223 223 223 224 227 228 229 234 238 241 240 241 245 248 249 248 243 236 234 234 233 232 233 235 237 239 242 244 244 241 239 237 238 239 240 240 240 240 240 240 240 238 237 235 233 231 229 228 227 225 224 224 227 229 230 232 235 237 239 240 240 241 241 241 243 245 247 249 250 252 255 256 256 253 252 254 257 258 255 250 250 252
224 224 223 224 225 225 226 228 229 230 232 236 240 240 239 242 245 247 248 246 241 237 237 235 234 234 234 234 237 239 242 246 245 243 240 239 240 241 241 242 242 242 243 243 243 243 241 240 238 235 233 231 229 228 228 230 232 233 234 235 237 239 241 242 242 242 243 243 244 246 249 250 251 253 255 256 255 253 253 255 258 259 258 258 259
227 227 227 227 227 228 228 229 231 232 232 234 238 239 239 240 243 245 246 245 242 239 239 238 238 239 237 236 238 239 240 244 247 248 245 242 241 241 242 242 243 244 245 245 245 245 244 244 244 242 240 237 234 232 232 234 235 236 237 238 239 240 241 243 244 245 245 245 245 246 247 249 251 252 255 256 256 255 255 255 256 258 259 260 263
230 230 230 230 230 231 231 231 233 234 235 236 236 238 238 237 239 242 245 246 244 242 243 244 244 244 243 241 240 241 241 243 246 249 250 246 243 242 242 242 243 244 245 245 246 245 245 244 245 245 244 242 240 238 236 237 238 239 240 241 242 243 245 246 247 248 248 247 247 246 246 247 249 251 253 255 255 256 258 258 258 258 258 260 263
232 232 233 233 234 234 234 235 235 237 238 239 237 237 238 237 236 238 241 245 247 247 249 250 249 247 245 242 241 240 241 243 246 248 250 250 247 244 243 242 242 243 244 244 245 247 246 245 245 245 244 245 244 243 242 241 241 242 243 244 246 247 248 250 251 251 250 250 250 249 247 247 248 249 251 254 256 257 258 260 260 259 260 261 264
234 234 234 234 234 236 237 237 238 238 240 241 240 239 239 237 236 235 237 240 245 250 251 251 250 248 247 245 243 241 241 243 246 248 248 248 248 246 243 242 241 241 242 243 244 245 246 246 245 245 244 244 244 245 245 244 245 245 245 246 248 249 250 252 254 255 255 254 254 253 251 249 248 249 250 252 255 257 258 259 260 261 261 263 265
237 236 235 234 233 234 236 237 238 238 239 240 240 240 240 239 237 235 235 236 240 246 250 251 251 250 249 248 247 244 243 244 244 246 247 247 247 247 244 243 243 242 242 242 243 244 245 245 245 246 245 244 243 244 245 246 247 249 249 248 249 249 250 251 253 255 257 257 257 256 255 253 252 250 250 251 254 257 258 259 260 261 262 264 266
241 239 237 235 234 233 234 235 236 237 237 237 238 239 240 240 239 237 236 235 236 240 245 249 251 250 249 249 249 247 246 245 244 243 245 246 248 248 246 246 247 246 245 244 243 244 244 244 244 245 245 245 243 243 245 246 247 249 250 250 249 249 249 249 250 252 254 256 257 257 257 256 255 253 252 252 254 257 259 260 260 261 263 264 266
243 242 240 238 237 235 233 233 233 234 236 236 236 237 238 239 239 238 238 237 237 237 240 244 248 250 249 249 249 249 248 248 246 244 245 247 249 249 248 248 250 250 249 247 244 243 244 245 245 244 244 244 244 244 244 245 246 248 250 250 250 249 248 248 248 248 250 252 254 257 257 258 257 255 253 253 254 256 259 260 261 263 264 264 265
242 243 243 241 240 238 237 235 233 232 234 235 235 236 237 238 239 239 239 239 239 239 239 241 244 248 249 248 248 249 249 249 248 247 248 250 251 251 251 250 250 251 251 250 247 244 243 244 245 245 243 243 243 243 243 244 245 247 249 250 250 250 249 248 246 246 247 248 251 254 256 257 257 257 255 254 254 256 258 261 263 265 266 266 267
240 241 242 242 241 241 240 239 236 234 233 233 234 235 236 237 238 239 240 240 240 240 240 240 242 245 247 247 247 248 249 249 248 249 250 252 253 253 252 251 250 251 252 252 252 250 248 246 246 246 246 245 243 241 241 242 244 246 247 248 249 250 249 249 247 245 245 246 248 250 253 254 256 257 257 256 255 255 257 261 264 265 266 268 269
240 240 240 241 241 241 241 240 240 238 236 234 233 234 236 237 237 238 239 240 240 241 242 241 241 242 244 246 246 247 248 249 250 250 251 252 254 254 255 254 252 252 252 252 251 251 250 249 249 250 249 248 246 244 241 241 241 243 246 247 247 248 249 249 248 246 245 246 247 248 250 252 254 255 256 257 256 256 258 261 263 265 266 268 270
243 242 241 240 240 240 241 240 240 240 239 237 236 235 236 238 238 238 238 239 240 240 241 242 241 240 242 243 243 245 246 248 250 251 252 253 253 253 254 255 254 252 252 251 250 248 248 249 251 251 249 248 248 247 245 243 241 242 244 246 246 247 247 247 247 246 245 245 247 248 249 251 253 254 255 256 257 258 259 261 263 264 266 268 272
245 244 243 242 241 240 240 240 240 239 239 239 238 237 236 238 239 239 239 238 238 239 240 241 241 241 242 243 243 244 244 245 247 250 252 253 253 253 253 255 256 254 253 255 254 250 248 248 250 250 249 248 248 248 247 246 244 242 243 245 246 246 247 247 247 246 245 246 246 247 248 250 252 254 255 256 257 258 259 260 262 265 267 270 273
248 247 246 245 243 242 241 241 240 240 239 238 239 238 237 237 239 240 241 240 239 238 238 239 241 242 244 245 246 247 246 245 246 247 249 251 252 253 253 253 255 256 256 257 257 251 247 248 249 248 248 248 247 246 246 246 245 242 241 243 245 246 247 247 246 246 246 246 246 246 247 249 251 253 254 255 257 258 259 261 263 265 267 269 269
251 250 249 247 246 245 243 242 242 241 240 238 238 238 238 237 237 238 240 241 241 240 239 238 239 240 242 244 246 248 248 247 247 247 248 249 250 252 253 253 255 256 257 258 257 251 248 250 250 246 245 246 244 243 243 244 243 241 241 240 241 244 246 247 247 246 245 245 244 245 245 246 248 251 254 256 259 261 262 263 263 263 263 263 263
253 253 252 250 249 248 246 245 244 243 242 240 239 238 238 238 237 237 237 238 240 241 241 240 239 238 240 241 244 246 247 247 247 247 248 249 250 251 253 254 255 256 256 257 258 255 252 254 254 247 243 243 245 246 246 244 240 238 238 238 238 241 244 245 245 244 242 242 243 243 243 246 249 253 257 260 261 262 263 262 261 261 261 262 263
254 254 254 253 252 250 249 247 246 245 244 243 241 240 239 239 239 238 237 237 238 239 241 241 241 239 239 239 240 243 245 246 247 248 248 249 250 252 253 254 254 255 256 256 256 256 254 254 256 251 244 241 244 246 247 246 241 236 236 237 238 241 244 245 245 243 242 244 247 247 248 251 254 257 260 261 261 261 261 261 261 262 262 264 265
255 255 255 255 254 253 251 250 248 247 247 245 243 242 240 240 240 240 239 238 238 238 239 241 242 241 241 239 239 240 242 244 246 247 247 247 247 248 251 253 253 253 255 255 255 254 252 250 254 257 250 242 239 241 244 244 239 236 238 238 238 241 244 246 247 247 245 245 250 254 256 257 258 259 258 258 259 259 260 260 261 261 263 265 266
256 257 257 257 257 256 254 253 251 249 248 247 246 245 243 241 240 241 240 240 239 238 238 239 240 242 242 242 241 240 241 243 244 245 246 246 245 245 246 247 248 249 252 253 253 253 251 249 251 257 255 243 237 238 240 239 236 238 241 241 239 240 243 244 247 249 247 245 250 256 258 256 256 257 258 258 258 259 259 260 259 259 261 262 264
Height
5921 5921 5922 5923 5924 5925 5927 5928 5929 5930 5930 5931 5932 5933 5935 5936 5938 5939 5940 5941 5941 5942 5943 5944 5945 5946 5947 5947 5948 5948 5949 5950 5950 5950 5951 5951 5952 5953 5954 5954 5955 5955 5955 5956 5956 5957 5958 5958 5959 5960 5960 5961 5962 5962 5962 5962 5963 5963 5963 5963 5963 5964 5964 5965 5966 5966 5967 5967 5968 5968 5969 5969 5969 5969 5970 5970 5970 5970 5970 5970 5970 5970 5971 5971 5971
5921 5922 5922 5923 5924 5925 5926 5927 5928 5929 5930 5931 5931 5933 5934 5936 5937 5939 5940 5941 5942 5943 5944 5944 5945 5946 5947 5947 5948 5948 5949 5950 5950 5951 5951 5952 5952 5953 5954 5954 5955 5955 5956 5956 5957 5958 5958 5959 5960 5961 5961 5962 5963 5963 5963 5963 5964 5964 5964 5964 5964 5965 5965 5966 5966 5967 5968 5968 5969 5969 5970 5970 5970 5971 5971 5971 5971 5971 5971 5971 5971 5971 5971 5972 5972
5920 5921 5922 5923 5923 5925 5925 5926 5927 5928 5930 5931 5932 5932 5934 5935 5937 5938 5939 5941 5942 5943 5944 5945 5946 5947 5947 5947 5947 5948 5949 5950 5951 5951 5952 5952 5953 5953 5954 5954 5955 5956 5956 5957 5957 5958 5959 5960 5960 5961 5962 5963 5964 5964 5964 5964 5965 5965 5965 5965 5966 5966 5966 5967 5967 5968 5969 5969 5969 5970 5971 5971 5971 5972 5972 5972 5972 5972 5973 5973 5973 5973 5973 5973 5973
5919 5921 5921 5922 5923 5924 5925 5925 5927 5928 5929 5930 5931 5932 5933 5934 5936 5937 5939 5941 5942 5943 5944 5945 5946 5946 5947 5947 5947 5947 5948 5950 5951 5951 5952 5953 5953 5954 5954 5955 5955 5956 5956 5957 5958 5958 5959 5960 5961 5962 5963 5964 5964 5965 5965 5965 5966 5966 5966 5967 5967 5967 5967 5968 5968 5969 5970 5970 5970 5971 5971 5972 5972 5973 5973 5973 5973 5973 5974 5974 5973 5973 5973 5974 5974
5918 5919 5921 5921 5922 5923 5924 5925 5926 5927 5928 5929 5930 5931 5932 5933 5935 5937 5938 5940 5942 5943 5944 5945 5946 5946 5946 5946 5947 5948 5949 5950 5951 5952 5952 5953 5953 5954 5954 5955 5955 5956 5957 5957 5958 5959 5960 5960 5961 5962 5963 5964 5965 5966 5966 5966 5967 5967 5967 5968 5968 5968 5968 5969 5969 5970 5970 5971 5971 5972 5972 5973 5973 5973 5973 5974 5974 5974 5974 5974 5974 5974 5974 5975 5975
5916 5918 5920 5920 5921 5922 5923 5924 5925 5926 5928 5929 5930 5930 5931 5933 5935 5936 5938 5940 5941 5943 5944 5945 5945 5945 5946 5946 5947 5948 5950 5951 5951 5952 5953 5953 5954 5954 5955 5955 5956 5956 5957 5958 5958 5959 5960 5961 5962 5963 5964 5965 5966 5966 5967 5967 5967 5968 5968 5969 5969 5969 5969 5970 5970 5971 5971 5971 5972 5973 5973 5974 5974 5974 5974 5975 5975 5975 5975 5975 5975 5975 5975 5975 5976
5915 5917 5919 5920 5921 5922 5923 5924 5924 5926 5927 5928 5929 5930 5931 5932 5934 5936 5938 5939 5941 5942 5943 5944 5944 5945 5946 5947 5948 5949 5950 5951 5952 5952 5953 5953 5954 5954 5955 5955 5956 5957 5957 5958 5959 5960 5960 5961 5962 5963 5964 5965 5966 5967 5967 5968 5968 5969 5969 5969 5969 5970 5970 5970 5971 5971 5971 5972 5973 5973 5974 5974 5975 5975 5975 5975 5975 5975 5976 5976 5976 5976 5976 5976 5977
5913 5915 5918 5919 5920 5921 5922 5923 5924 5925 5926 5928 5929 5930 5931 5932 5933 5935 5937 5939 5941 5942 5942 5943 5944 5945 5946 5947 5948 5949 5950 5951 5952 5952 5953 5953 5954 5954 5955 5955 5956 5957 5958 5958 5959 5960 5961 5962 5963 5964 5965 5966 5967 5967 5968 5968 5969 5969 5970 5970 5970 5970 5970 5971 5971 5972 5972 5973 5974 5974 5974 5975 5975 5975 5975 5976 5976 5976 5976 5976 5977 5977 5977 5977 5978
5914 5915 5916 5917 5919 5920 5921 5922 5923 5925 5926 5927 5928 5929 5930 5931 5933 5935 5936 5938 5940 5941 5942 5943 5944 5945 5946 5947 5948 5949 5950 5951 5951 5952 5952 5953 5954 5955 5955 5956 5957 5958 5958 5959 5959 5960 5961 5962 5963 5965 5966 5966 5967 5968 5968 5969 5969 5970 5970 5971 5971 5971 5971 5971 5972 5972 5973 5974 5974 5975 5975 5975 5976 5976 5976 5976 5977 5977 5977 5977 5978 5978 5978 5978 5979
5914 5914 5915 5916 5917 5919 5920 5921 5923 5924 5925 5926 5927 5929 5930 5931 5932 5934 5936 5937 5939 5940 5941 5942 5944 5945 5946 5948 5948 5949 5949 5950 5951 5952 5952 5953 5954 5955 5955 5956 5957 5958 5958 5959 5960 5961 5961 5962 5964 5965 5966 5967 5968 5968 5969 5969 5970 5970 5971 5971 5971 5971 5972 5972 5973 5973 5974 5974 5974 5975 5975 5976 5976 5977 5977 5977 5977 5977 5978 5978 5978 5979 5979 5979 5979
5913 5914 5914 5915 5916 5917 5919 5921 5923 5924 5925 5926 5927 5929 5930 5931 5932 5933 5935 5936 5938 5940 5941 5942 5943 5945 5946 5948 5948 5948 5949 5950 5951 5952 5952 5953 5954 5955 5955 5956 5957 5958 5959 5959 5960 5961 5962 5963 5964 5965 5966 5967 5968 5968 5969 5970 5970 5971 5971 5971 5971 5972 5972 5973 5973 5973 5974 5974 5974 5975 5975 5976 5976 5977 5977 5978 5978 5978 5978 5979 5979 5979 5980 5980 5980
5912 5913 5914 5915 5916 5917 5919 5920 5922 5924 5925 5926 5927 5928 5929 5930 5931 5933 5934 5936 5937 5939 5940 5942 5943 5944 5946 5947 5948 5948 5949 5950 5951 5952 5953 5953 5954 5955 5956 5957 5958 5959 5959 5960 5960 5961 5962 5963 5964 5964 5966 5967 5967 5968 5969 5970 5970 5971 5971 5971 5972 5972 5973 5973 5973 5974 5974 5974 5975 5975 5975 5976 5976 5977 5977 5978 5978 5979 5979 5979 5980 5980 5980 5981 5981
5910 5912 5913 5915 5916 5917 5918 5919 5921 5923 5924 5925 5926 5927 5928 5930 5931 5932 5934 5935 5936 5938 5940 5941 5942 5944 5945 5947 5947 5948 5949 5950 5951 5952 5953 5954 5954 5956 5957 5958 5959 5960 5960 5960 5960 5961 5962 5963 5964 5965 5965 5966 5967 5968 5969 5970 5970 5971 5971 5971 5972 5972 5973 5974 5974 5974 5975 5975 5975 5975 5976 5976 5977 5977 5978 5978 5979 5979 5980 5980 5980 5981 5981 5982 5982
5909 5910 5912 5913 5915 5916 5917 5919 5920 5921 5922 5923 5924 5926 5927 5929 5930 5931 5933 5934 5936 5937 5939 5940 5942 5943 5945 5946 5947 5948 5949 5950 5951 5952 5953 5954 5955 5956 5957 5958 5959 5960 5960 5960 5961 5961 5962 5963 5964 5965 5965 5966 5967 5968 5969 5969 5970 5971 5971 5971 5972 5972 5973 5974 5974 5975 5975 5975 5975 5976 5976 5977 5977 5977 5978 5978 5979 5980 5980 5981 5981 5981 5982 5982 5983
5907 5909 5910 5911 5913 5914 5916 5918 5919 5920 5921 5922 5923 5924 5925 5927 5929 5930 5932 5933 5935 5936 5938 5939 5941 5943 5945 5946 5946 5947 5949 5950 5951 5952 5953 5953 5954 5956 5957 5958 5959 5959 5960 5960 5961 5962 5962 5963 5964 5965 5965 5966 5967 5968 5968 5969 5970 5970 5971 5971 5972 5973 5973 5974 5974 5975 5975 5976 5976 5976 5976 5977 5977 5978 5978 5979 5979 5980 5981 5981 5982 5982 5982 5983 5983
5906 5907 5908 5909 5910 5912 5913 5915 5917 5919 5920 5921 5922 5923 5924 5925 5926 5928 5930 5932 5934 5935 5936 5938 5940 5942 5944 5945 5946 5947 5948 5949 5951 5951 5952 5953 5954 5955 5956 5957 5958 5959 5960 5960 5961 5962 5963 5963 5964 5965 5965 5966 5967 5968 5968 5969 5970 5970 5971 5971 5972 5973 5973 5974 5974 5975 5975 5976 5976 5976 5976 5977 5977 5978 5979 5979 5979 5980 5981 5981 5982 5982 5983 5983 5983
5905 5906 5907 5908 5909 5910 5911 5913 5915 5916 5918 5919 5921 5921 5922 5923 5924 5926 5928 5930 5932 5934 5935 5937 5939 5941 5943 5944 5945 5946 5947 5949 5950 5951 5952 5953 5954 5954 5955 5956 5957 5958 5959 5960 5961 5962 5963 5963 5964 5964 5965 5966 5967 5968 5968 5969 5969 5970 5971 5971 5972 5972 5973 5973 5974 5974 5975 5975 5976 5976 5976 5977 5977 5978 5979 5979 5980 5981 5981 5982 5982 5983 5983 5983 5984
5903 5903 5905 5906 5908 5909 5910 5912 5914 5915 5915 5917 5918 5919 5920 5921 5922 5923 5925 5927 5929 5931 5933 5935 5937 5939 5941 5943 5944 5945 5946 5947 5949 5950 5951 5952 5953 5954 5954 5955 5956 5957 5958 5959 5960 5962 5963 5963 5964 5964 5965 5966 5967 5967 5968 5969 5969 5970 5970 5971 5972 5972 5973 5973 5974 5974 5974 5975 5975 5976 5976 5977 5977 5978 5979 5979 5980 5981 5982 5982 5983 5983 5983 5984 5984
5901 5902 5903 5905 5906 5908 5909 5911 5912 5914 5915 5915 5916 5917 5918 5920 5921 5922 5923 5924 5926 5928 5930 5933 5935 5937 5939 5941 5942 5944 5945 5946 5948 5949 5950 5951 5952 5953 5953 5954 5955 5956 5958 5959 5960 5961 5962 5963 5964 5964 5965 5966 5967 5967 5968 5969 5969 5970 5970 5971 5971 5972 5973 5973 5973 5974 5974 5974 5975 5976 5976 5977 5977 5978 5978 5979 5980 5981 5982 5982 5983 5983 5983 5984 5984
5899 5901 5902 5903 5904 5906 5908 5909 5910 5911 5913 5914 5915 5916 5917 5919 5920 5921 5922 5922 5924 5926 5928 5930 5932 5934 5936 5938 5940 5942 5943 5945 5946 5947 5948 5949 5951 5952 5953 5954 5954 5956 5957 5958 5959 5960 5962 5963 5964 5964 5965 5965 5966 5967 5968 5969 5969 5970 5970 5971 5971 5972 5972 5973 5973 5974 5974 5974 5975 5975 5976 5976 5977 5978 5978 5979 5980 5980 5981 5982 5983 5983 5983 5984 5984
5898 5899 5900 5901 5903 5905 5906 5907 5908 5909 5910 5912 5913 5914 5916 5918 5919 5921 5922 5923 5924 5925 5926 5928 5930 5932 5934 5936 5938 5939 5941 5943 5944 5946 5947 5948 5949 5951 5952 5953 5954 5955 5956 5957 5959 5960 5961 5962 5963 5964 5964 5965 5966 5967 5968 5968 5969 5970 5970 5971 5971 5972 5972 5973 5973 5974 5974 5974 5974 5975 5975 5976 5976 5977 5978 5978 5979 5980 5981 5981 5982 5983 5983 5983 5984
5896 5897 5898 5899 5901 5904 5904 5905 5907 5908 5908 5909 5911 5913 5915 5917 5918 5920 5922 5924 5925 5926 5927 5928 5929 5930 5932 5933 5935 5937 5939 5941 5942 5944 5945 5946 5948 5949 5951 5952 5953 5954 5955 5956 5958 5959 5960 5961 5962 5963 5964 5964 5965 5966 5967 5968 5969 5969 5970 5971 5971 5972 5972 5973 5973 5974 5974 5974 5974 5975 5975 5976 5976 5977 5977 5978 5979 5979 5980 5981 5982 5982 5983 5983 5983
5894 5895 5897 5898 5899 5901 5902 5903 5905 5906 5907 5908 5909 5912 5914 5915 5917 5919 5921 5922 5924 5926 5927 5929 5930 5931 5931 5932 5933 5935 5936 5938 5940 5942 5943 5944 5946 5947 5949 5951 5952 5953 5954 5955 5957 5958 5959 5960 5961 5962 5963 5963 5964 5965 5966 5966 5967 5968 5969 5970 5971 5972 5972 5973 5973 5974 5974 5974 5974 5975 5975 5975 5976 5976 5977 5977 5978 5979 5980 5980 5981 5982 5982 5982 5983
5892 5893 5895 5896 5897 5899 5900 5901 5902 5903 5905 5907 5909 5911 5913 5914 5916 5917 5918 5919 5921 5923 5925 5927 5929 5931 5931 5932 5933 5933 5934 5936 5938 5940 5941 5942 5944 5945 5947 5949 5950 5952 5953 5954 5955 5957 5958 5959 5960 5961 5962 5962 5963 5964 5965 5965 5966 5967 5968 5969 5970 5971 5972 5973 5973 5974 5974 5974 5975 5975 5975 5975 5976 5976 5976 5977 5978 5978 5979 5980 5980 5981 5981 5982 5982
5890 5891 5892 5894 5895 5896 5897 5898 5900 5901 5902 5905 5907 5909 5911 5913 5914 5915 5916 5916 5918 5920 5922 5924 5926 5928 5930 5932 5933 5933 5934 5935 5936 5937 5938 5940 5941 5943 5945 5946 5948 5949 5950 5952 5953 5955 5956 5957 5958 5959 5960 5961 5962 5963 5964 5964 5965 5966 5967 5968 5969 5970 5971 5972 5972 5973 5974 5974 5974 5975 5975 5975 5975 5976 5976 5977 5977 5978 5979 5979 5980 5980 5981 5981 5981
5887 5888 5890 5891 5893 5894 5894 5896 5897 5898 5899 5901 5904 5905 5908 5910 5912 5913 5914 5915 5917 5918 5919 5921 5923 5925 5928 5930 5932 5933 5933 5933 5934 5935 5936 5937 5939 5941 5943 5944 5945 5947 5948 5949 5951 5952 5954 5955 5956 5957 5958 5959 5961 5962 5963 5963 5964 5965 5965 5966 5967 5968 5969 5970 5971 5972 5973 5973 5974 5974 5975 5975 5975 5976 5976 5976 5977 5977 5978 5979 5979 5980 5980 5980 5980
5884 5885 5887 5888 5890 5891 5892 5893 5894 5895 5897 5899 5900 5903 5905 5907 5908 5909 5911 5913 5915 5916 5918 5919 5921 5923 5925 5927 5929 5931 5932 5932 5932 5933 5934 5936 5937 5939 5940 5941 5943 5944 5945 5947 5948 5950 5952 5953 5954 5955 5956 5958 5959 5960 5961 5962 5963 5964 5964 5965 5966 5967 5967 5968 5969 5970 5971 5972 5973 5974 5974 5974 5975 5975 5976 5976 5976 5977 5978 5978 5979 5979 5979 5979 5980
5880 5882 5884 5885 5887 5888 5889 5890 5891 5893 5895 5896 5898 5900 5902 5904 5905 5906 5908 5910 5911 5913 5915 5917 5919 5921 5923 5924 5926 5928 5929 5930 5931 5931 5933 5934 5936 5937 5938 5939 5941 5942 5943 5945 5946 5947 5949 5950 5952 5953 5954 5956 5957 5959 5960 5961 5962 5963 5963 5964 5965 5965 5966 5967 5968 5969 5970 5971 5972 5973 5973 5973 5974 5975 5975 5976 5976 5976 5977 5977 5978 5978 5978 5978 5978
5876 5879 5880 5882 5883 5885 5887 5888 5889 5891 5892 5894 5896 5897 5899 5900 5902 5904 5906 5908 5909 5910 5912 5914 5916 5919 5920 5921 5923 5924 5926 5927 5928 5930 5931 5932 5934 5935 5937 5938 5940 5941 5942 5943 5944 5945 5947 5948 5950 5951 5952 5954 5955 5957 5958 5959 5960 5961 5961 5962 5963 5964 5965 5965 5966 5967 5968 5969 5970 5971 5972 5972 5973 5973 5974 5975 5975 5976 5976 5976 5977 5977 5977 5977 5977
5872 5874 5876 5878 5879 5881 5884 5886 5887 5889 5890 5891 5893 5895 5896 5897 5899 5901 5903 5905 5906 5908 5909 5911 5914 5916 5916 5918 5919 5921 5923 5924 5925 5927 5928 5930 5931 5933 5935 5937 5938 5939 5940 5941 5942 5943 5945 5946 5947 5949 5950 5951 5953 5955 5956 5957 5957 5958 5959 5960 5961 5962 5963 5964 5965 5966 5967 5967 5968 5969 5970 5970 5971 5972 5972 5973 5974 5974 5975 5975 5976 5976 5976 5976 5976
5867 5869 5872 5873 5875 5877 5880 5882 5884 5886 5887 5889 5890 5892 5893 5895 5896 5897 5899 5901 5903 5905 5907 5909 5911 5912 5913 5915 5916 5918 5919 5920 5922 5924 5925 5927 5928 5930 5932 5934 5936 5937 5938 5939 5941 5942 5943 5944 5945 5947 5948 5949 5951 5953 5954 5954 5955 5956 5957 5957 5958 5959 5960 5961 5962 5963 5964 5965 5966 5967 5968 5968 5969 5970 5970 5971 5972 5973 5973 5974 5974 5974 5975 5974 5974
5862 5864 5867 5869 5870 5872 5875 5877 5879 5882 5884 5885 5887 5889 5890 5892 5893 5894 5896 5897 5900 5901 5903 5905 5906 5907 5909 5911 5913 5914 5916 5917 5919 5920 5922 5924 5925 5927 5930 5932 5933 5934 5936 5937 5939 5940 5941 5942 5943 5945 5946 5947 5949 5950 5951 5952 5952 5953 5954 5955 5955 5956 5957 5959 5960 5961 5962 5963 5964 5965 5965 5966 5967 5967 5968 5969 5970 5971 5971 5971 5972 5973 5973 5973 5973
5858 5860 5862 5864 5866 5868 5870 5872 5875 5877 5879 5882 5884 5885 5887 5889 5890 5891 5892 5894 5896 5898 5899 5900 5901 5902 5904 5906 5908 5910 5912 5914 5915 5917 5918 5920 5922 5924 5927 5928 5930 5931 5932 5935 5936 5938 5940 5941 5942 5943 5945 5946 5947 5948 5949 5950 5950 5951 5952 5952 5953 5954 5955 5956 5957 5958 5959 5960 5961 5962 5963 5965 5965 5965 5966 5967 5968 5968 5969 5969 5970 5971 5971 5972 5972
5853 5855 5857 5859 5861 5863 5865 5868 5870 5872 5875 5877 5879 5881 5883 5885 5886 5887 5889 5890 5892 5893 5894 5895 5897 5900 5902 5904 5905 5907 5909 5910 5912 5914 5915 5916 5918 5920 5922 5924 5926 5927 5929 5931 5933 5935 5937 5939 5940 5942 5943 5944 5945 5946 5947 5948 5948 5949 5950 5950 5951 5952 5952 5953 5955 5956 5957 5958 5959 5960 5961 5962 5963 5964 5964 5965 5966 5966 5966 5967 5968 5969 5969 5970 5970
5847 5850 5853 5854 5856 5858 5861 5863 5865 5867 5870 5872 5874 5877 5879 5881 5883 5884 5885 5886 5887 5887 5889 5892 5896 5898 5900 5902 5903 5904 5905 5907 5909 5911 5912 5913 5914 5916 5917 5919 5921 5923 5925 5927 5929 5931 5933 5935 5937 5939 5941 5942 5944 5945 5945 5946 5946 5947 5948 5948 5949 5950 5951 5952 5953 5953 5954 5955 5956 5957 5958 5960 5960 5961 5962 5963 5963 5964 5964 5965 5966 5967 5967 5968 5968
5842 5844 5847 5849 5851 5853 5855 5858 5860 5862 5864 5867 5869 5872 5874 5876 5878 5880 5881 5882 5882 5882 5884 5889 5893 5895 5896 5898 5899 5900 5902 5904 5905 5907 5909 5910 5911 5912 5912 5913 5915 5918 5920 5923 5925 5927 5929 5931 5933 5935 5937 5939 5941 5942 5943 5943 5944 5944 5945 5946 5947 5949 5950 5950 5951 5951 5952 5953 5954 5954 5956 5957 5958 5959 5960 5961 5961 5961 5962 5963 5964 5965 5965 5966 5966
5836 5838 5841 5844 5846 5848 5850 5852 5855 5857 5859 5862 5864 5867 5869 5871 5873 5876 5878 5879 5880 5880 5881 5884 5888 5890 5892 5893 5894 5896 5898 5900 5901 5903 5904 5906 5906 5907 5907 5908 5910 5912 5915 5919 5921 5923 5925 5927 5929 5930 5933 5935 5937 5939 5940 5941 5941 5941 5942 5943 5945 5946 5947 5948 5949 5949 5950 5951 5952 5952 5953 5954 5955 5956 5957 5958 5958 5958 5960 5961 5962 5962 5963 5963 5964
5829 5832 5835 5838 5840 5843 5845 5847 5849 5852 5854 5856 5859 5861 5863 5865 5867 5870 5873 5875 5877 5878 5878 5880 5883 5885 5887 5889 5890 5892 5895 5896 5897 5898 5899 5901 5901 5902 5904 5904 5906 5908 5911 5914 5917 5919 5921 5923 5925 5926 5928 5930 5933 5935 5936 5937 5938 5938 5939 5941 5942 5943 5944 5945 5946 5947 5947 5949 5949 5950 5950 5951 5952 5953 5954 5954 5955 5955 5957 5958 5959 5959 5960 5961 5962
5823 5826 5829 5832 5834 5837 5839 5841 5844 5846 5848 5851 5853 5856 5858 5860 5861 5864 5867 5870 5872 5874 5875 5876 5878 5881 5883 5884 5886 5889 5891 5892 5893 5894 5895 5895 5897 5899 5902 5903 5904 5905 5907 5910 5912 5914 5916 5918 5920 5922 5924 5926 5928 5930 5932 5933 5934 5934 5935 5937 5938 5939 5941 5942 5943 5944 5944 5946 5946 5947 5947 5948 5949 5950 5950 5951 5952 5952 5953 5955 5955 5956 5958 5959 5959
5817 5819 5822 5825 5828 5830 5833 5836 5838 5840 5842 5845 5847 5849 5852 5854 5856 5859 5861 5863 5866 5869 5871 5872 5874 5876 5878 5880 5882 5884 5886 5887 5888 5889 5890 5891 5892 5896 5899 5901 5902 5902 5903 5905 5907 5909 5911 5913 5915 5917 5919 5921 5924 5926 5927 5929 5929 5930 5931 5932 5934 5935 5937 5938 5939 5940 5941 5942 5943 5943 5944 5945 5946 5946 5946 5948 5948 5949 5950 5951 5951 5953 5955 5956 5955
5811 5813 5816 5818 5821 5824 5826 5829 5832 5834 5836 5839 5841 5843 5845 5848 5850 5853 5855 5857 5860 5863 5866 5868 5869 5871 5874 5876 5878 5879 5881 5882 5883 5885 5886 5887 5889 5893 5895 5896 5897 5898 5900 5902 5903 5904 5906 5908 5910 5911 5913 5916 5918 5921 5922 5924 5925 5925 5927 5928 5929 5932 5933 5934 5935 5936 5937 5939 5940 5940 5941 5942 5942 5942 5942 5943 5945 5946 5946 5947 5948 5950 5951 5951 5951
5804 5806 5809 5812 5814 5817 5819 5822 5824 5827 5830 5832 5835 5836 5839 5841 5844 5847 5849 5852 5854 5857 5859 5862 5864 5866 5868 5871 5873 5874 5876 5877 5879 5881 5883 5884 5886 5888 5889 5890 5891 5894 5896 5899 5900 5901 5902 5905 5906 5907 5909 5911 5913 5915 5917 5918 5920 5921 5922 5923 5925 5927 5929 5929 5930 5932 5933 5935 5936 5937 5937 5938 5938 5938 5938 5939 5941 5942 5943 5944 5945 5946 5947 5946 5947
5798 5799 5801 5804 5807 5810 5812 5814 5817 5820 5822 5825 5828 5830 5832 5834 5837 5840 5843 5845 5848 5851 5853 5856 5858 5860 5862 5864 5866 5868 5870 5872 5874 5876 5878 5879 5881 5883 5883 5884 5886 5889 5892 5894 5896 5897 5899 5901 5903 5904 5905 5907 5909 5910 5911 5913 5914 5915 5916 5918 5920 5922 5923 5924 5925 5928 5929 5930 5931 5932 5933 5933 5933 5934 5934 5934 5936 5938 5939 5941 5941 5942 5942 5942 5942
5792 5793 5795 5797 5800 5802 5805 5807 5809 5812 5814 5817 5820 5823 5825 5827 5829 5832 5835 5838 5842 5844 5847 5849 5852 5854 5856 5857 5859 5862 5864 5866 5869 5870 5872 5874 5875 5877 5879 5879 5881 5883 5886 5888 5890 5892 5894 5897 5899 5900 5901 5902 5903 5905 5907 5907 5909 5910 5911 5912 5914 5916 5917 5918 5920 5922 5924 5925 5926 5927 5928 5928 5928 5929 5929 5930 5932 5934 5936 5937 5937 5937 5938 5938 5938
5785 5787 5788 5790 5792 5795 5797 5799 5801 5804 5806 5809 5812 5815 5818 5820 5822 5824 5827 5831 5834 5837 5840 5843 5845 5847 5849 5851 5853 5855 5857 5859 5862 5864 5866 5868 5869 5872 5874 5875 5875 5877 5880 5882 5885 5887 5889 5892 5894 5896 5897 5897 5898 5900 5901 5902 5903 5904 5905 5907 5909 5910 5911 5913 5915 5917 5919 5920 5920 5921 5921 5922 5923 5924 5924 5925 5927 5930 5931 5932 5933 5933 5933 5934 5935
5777 5779 5781 5783 5785 5787 5789 5791 5793 5795 5798 5800 5803 5806 5809 5812 5814 5817 5819 5822 5826 5829 5833 5836 5838 5841 5843 5844 5846 5848 5850 5853 5855 5857 5859 5861 5863 5866 5869 5870 5870 5872 5874 5877 5879 5881 5883 5886 5888 5890 5892 5892 5892 5893 5895 5896 5898 5899 5900 5902 5903 5904 5905 5906 5908 5911 5913 5914 5914 5914 5915 5916 5917 5918 5919 5921 5923 5925 5927 5928 5929 5929 5929 5930 5930
5768 5770 5773 5775 5777 5780 5782 5783 5785 5786 5788 5792 5795 5797 5800 5803 5806 5809 5811 5814 5818 5821 5824 5828 5831 5833 5836 5838 5839 5842 5844 5846 5847 5849 5852 5855 5857 5860 5862 5864 5865 5867 5869 5871 5873 5875 5877 5879 5882 5883 5883 5882 5883 5886 5889 5890 5891 5892 5893 5894 5896 5897 5899 5900 5903 5905 5906 5906 5906 5907 5908 5910 5911 5912 5914 5917 5920 5921 5922 5923 5924 5924 5924 5925 5925
5760 5762 5764 5766 5769 5772 5774 5776 5778 5778 5780 5783 5786 5789 5792 5794 5798 5800 5803 5806 5810 5813 5816 5819 5822 5826 5829 5831 5833 5835 5837 5839 5841 5842 5845 5848 5851 5853 5856 5858 5860 5861 5864 5866 5867 5870 5872 5873 5874 5874 5873 5874 5879 5884 5885 5885 5883 5883 5884 5886 5889 5891 5892 5894 5896 5896 5896 5897 5899 5901 5903 5905 5907 5910 5912 5915 5916 5917 5917 5918 5919 5919 5919 5920 5920
5751 5753 5755 5757 5760 5763 5765 5768 5770 5771 5772 5774 5777 5781 5783 5786 5789 5792 5795 5798 5802 5805 5808 5810 5813 5817 5820 5824 5826 5828 5830 5832 5834 5836 5839 5842 5845 5847 5850 5853 5855 5856 5858 5860 5862 5864 5867 5867 5865 5864 5865 5871 5878 5880 5879 5878 5878 5879 5879 5880 5883 5885 5886 5887 5887 5887 5889 5893 5896 5898 5901 5904 5905 5908 5909 5911 5912 5912 5912 5913 5914 5914 5915 5915 5915
5743 5744 5746 5748 5750 5753 5756 5759 5762 5763 5765 5766 5768 5772 5775 5777 5779 5782 5785 5790 5794 5797 5800 5803 5805 5808 5811 5815 5819 5821 5822 5824 5827 5829 5832 5835 5838 5840 5843 5847 5850 5850 5852 5854 5856 5859 5860 5861 5860 5860 5862 5868 5872 5872 5872 5874 5877 5878 5876 5875 5877 5879 5880 5880 5881 5882 5888 5894 5896 5897 5901 5902 5903 5904 5905 5906 5907 5908 5908 5909 5909 5910 5910 5911 5911
5735 5736 5737 5739 5741 5743 5746 5749 5752 5754 5757 5759 5760 5763 5766 5768 5770 5772 5775 5779 5784 5789 5792 5795 5797 5800 5802 5806 5809 5813 5815 5817 5819 5822 5825 5828 5831 5833 5835 5839 5842 5844 5845 5848 5850 5853 5854 5854 5855 5857 5859 5862 5864 5865 5866 5869 5871 5871 5870 5870 5871 5872 5873 5874 5875 5878 5887 5895 5896 5895 5897 5898 5898 5899 5901 5901 5902 5902 5903 5904 5905 5905 5906 5906 5907